138  
NZUS99 KSGF 200607  
HRRSGF  
 
HOURLY WEATHER  
NATIONAL WEATHER SERVICE SPRINGFIELD MO  
100 AM CDT SAT OCT 20 2018  
   
.....SGF CWA...
 
 
 
CITY SKY/WX TMP DP RH WIND PRES REMARKS  
SPRINGFIELD CLOUDY 54 52 93 NW6 30.13R  
6HR MIN TEMP: 53; 6HR MAX TEMP: 54;  
 
JOPLIN FOG 53 53 100 W7 30.17R VSB 3/4  
6HR MIN TEMP: 53; 6HR MAX TEMP: 54;  
 
WEST PLAINS CLOUDY 52 51 97 W9 30.11S  
6HR MIN TEMP: 50; 6HR MAX TEMP: 52; 6HR PCP: 0.01;  
 
ROLLA PTCLDY 51 50 96 W9 30.08S  
6HR MIN TEMP: 51; 6HR MAX TEMP: 55;  
 
OSAGE BEACH CLOUDY 55 53 93 W10 30.11R  
BRANSON CLOUDY 52 52 100 CALM 30.14F FOG  
   
.....SURROUNDING SGF CWA...
 
 
 
CITY SKY/WX TMP DP RH WIND PRES REMARKS  
CHANUTE PTCLDY 50 50 100 NW3 30.18R FOG  
PARSONS FOG 52 52 100 SW3 30.18R VSB<1/4  
COFFEYVILLE FOG 52 52 100 SW3 30.17R VSB 1/4  
EMPORIA CLEAR 51 41 68 N7 30.19R  
GROVE OK CLOUDY 55 54 94 CALM 30.17S FOG  
ROGERS AR CLOUDY 52 51 97 W7 30.16F FOG  
SILOAM SPRINGS FOG 52 52 100 W6 30.18R VSB 1/2  
HARRISON AR CLOUDY 52 51 97 W6 30.14S  
NEAR YELLVILLE CLOUDY 53 52 96 SW7 30.14S  
   
.....KANSAS AND MISSOURI...
 
 
 
CITY SKY/WX TMP DP RH WIND PRES REMARKS  
KANSAS CTY INT CLEAR 52 38 58 NW7 30.16R  
DOWNTOWN KC CLEAR 54 38 54 N6 30.15R  
COLUMBIA CLEAR 53 50 89 W8 30.09R  
SEDALIA CLEAR 51 51 100 W8 30.12R  
ST JOSEPH CLEAR 47 41 80 CALM 30.17R  
ST LOUIS CLOUDY 53 52 96 W7 30.05R  
SPIRIT OF STL PTCLDY 54 52 93 W7 30.05R  
KIRKSVILLE CLEAR 49 46 90 W7 30.08R  
WICHITA CLEAR 54 48 80 N9 30.21R  
TOPEKA CLEAR 53 38 56 W7 30.19R  
OLATHE CLEAR 53 41 63 N7 30.16R  
   
.....TENNESSEE...
 
 
 
CITY SKY/WX TMP DP RH WIND PRES REMARKS  
MEMPHIS LGT RAIN 57 56 96 NW8 30.11S FOG  
NASHVILLE LGT RAIN 56 53 90 NW6 30.09F  
   
.....ARKANSAS....
 
 
 
CITY SKY/WX TMP DP RH WIND PRES REMARKS  
FAYETTEVILLE CLOUDY 52 51 97 CALM 30.16S  
FT SMITH CLOUDY 54 53 97 CALM 30.16S  
LITTLE ROCK LGT RAIN 57 57 100 NW3 30.12F FOG  
   
.....OKLAHOMA....
 
 
 
CITY SKY/WX TMP DP RH WIND PRES REMARKS  
TULSA FOG 56 55 97 W5 30.16S VSB 3/4  
PONCA CITY FOG 47 45 93 CALM 30.18R VSB 1/4  
MCALESTER CLOUDY 56 54 93 CALM 30.17S  
OKLAHOMA CITY FOG 49 49 100 CALM 30.18R VSB 1/4  
   
.....IOWA.........
 
 
 
CITY SKY/WX TMP DP RH WIND PRES REMARKS  
DES MOINES CLEAR 48 36 63 NW10 30.09R  
QUAD CITIES FAIR 49 38 65 W9 29.96S  
   
.....ILLINOIS.....
 
 
 
CITY SKY/WX TMP DP RH WIND PRES REMARKS  
QUINCY CLEAR 49 47 93 W6 30.03R  
CHICAGO FAIR 50 46 86 W8 29.85R  
 
 
 
CLICK HERE TO GO TO PREVIOUS BULLETINS.

The Nexlab MO Page
The Nexlab KS Page Main Text Page